Notices

What's New in latest Release from April 7th, 2021:

- Updated Glossary, including Speed of Maximum Gust, and Total Hourly Precipitation

- Updated national and regional climate services offices contacts and prices information

- Addition of station inventory lists for 1981-2010, 1971-2000, and 1961-1990 Normals.

If you haven't already, please take our survey and provide feedback about our website: https://eccc.sondage-survey.ca/f/LanguageSelection.aspx?s=442ca660-fcf1-47c0-95a9-59707d6fd709

Hourly Data Report for December 30, 2019

CARBERRY CS
MANITOBA
Current Station Operator: ECCC - MSC

49°54'20.900" N
99°21'26.800" W
383.50 m
5010547
71170
WZE

Download Data

Hourly Data (December 2019)
Hourly Data Report for December 30, 2019
TIME
LST
Temp Definition
°C
Dew Point Definition
°C
Rel Hum Definition
%
Precip. Amount Definition
mm

Wind Dir Definition
10's deg

Wind Spd Definition
km/h
Visibility Definition
km
Stn Press Definition
kPa
Hmdx Definition


Wind Chill Definition


Weather Definition


00:00 -9.4 -11.7 83 0.0 1 21   96.72   -17 LegendNANA
01:00 -9.3 -11.3 85 0.0 1 21   96.68   -17 LegendNANA
02:00 -8.9 -11.1 84 0.0 1 21   96.62   -17 LegendNANA
03:00 -8.3 -10.4 85 0.0 35 23   96.67   -16 LegendNANA
04:00 -8.1 -10.3 84 0.0 36 17   96.71   -15 LegendNANA
05:00 -7.2 -10.4 78 0.0 34 20   96.66   -14 LegendNANA
06:00 -6.6 -9.3 81 0.0 34 22   96.63   -14 LegendNANA
07:00 -6.3 -8.8 82 0.0 1 18   96.71   -13 LegendNANA
08:00 -7.2 -10.1 80 0.0 36 18   96.76   -14 LegendNANA
09:00 -7.4 -10.0 82 0.0 36 19   96.79   -14 LegendNANA
10:00 -6.3 -9.9 75 0.0 35 20   96.77   -13 LegendNANA
11:00 -5.8 -9.6 74 0.0 36 15   96.82   -12 LegendNANA
12:00 -5.2 -8.7 76 0.0 36 19   96.76   -12 LegendNANA
13:00 -4.7 -9.4 70 0.0 35 16   96.71   -10 LegendNANA
14:00 -4.8 -9.5 70 0.0 36 19   96.69   -11 LegendNANA
15:00 -5.6 -9.6 74 0.0 36 18   96.70   -12 LegendNANA
16:00 -6.5 -9.8 77 0.0 35 10   96.73   -11 LegendNANA
17:00 -7.6 -10.7 79 0.0 34 8   96.82   -12 LegendNANA
18:00 -8.5 -11.6 78 0.0 2 8   96.87   -13 LegendNANA
19:00 -10.8 -12.7 86 0.0 31 4   96.88   -13 LegendNANA
20:00 -13.0 -14.7 87 0.0 31 12   96.90   -20 LegendNANA
21:00 -11.9 -13.3 89 0.0 33 8   96.87   -17 LegendNANA
22:00 -11.2 -12.2 92 0.0 33 10   96.84   -17 LegendNANA
23:00 -14.8 -16.0 90 0.0 29 10   96.80   -21 LegendNANA

Notes on Data Quality.

Legend

  • E = Estimated
  • M = Missing
  • NA = Not Available*
  • [empty] = Indicates an unobserved value
Date modified: